Wind_Speed
15 13 11 11 11 11 12 12 10 10 9 8 8 9 10 10 10 10 9 10 10 10 9 9 8 8 8 8 8 8 9 8 8 8 8 8 8 8 8 8 8 8
17 15 13 12 11 11 11 11 11 10 9 8 8 9 9 9 10 10 10 10 10 10 9 9 9 8 8 8 8 8 9 9 9 8 8 8 8 8 9 9 9 9
18 17 15 13 12 11 10 10 11 10 10 9 9 8 9 9 10 10 10 10 10 10 10 10 9 9 8 8 8 8 8 9 9 9 9 9 9 9 10 10 10 10
18 18 17 15 13 11 11 11 12 12 12 11 10 9 9 9 10 11 11 11 11 10 10 10 10 9 9 8 8 8 8 8 9 9 9 10 10 10 10 10 11 11
18 18 18 17 15 13 12 13 13 13 13 12 11 10 10 9 10 11 11 11 11 11 11 10 10 9 9 8 8 8 8 8 9 9 10 10 11 11 11 11 11 11
18 18 18 18 17 16 14 13 13 13 14 13 13 12 11 11 10 10 11 11 11 12 11 11 10 10 9 9 8 8 9 9 9 9 10 11 12 12 13 12 11 11
18 18 18 19 19 18 17 15 14 14 14 14 14 14 14 13 12 11 11 11 11 12 11 11 10 10 10 9 9 9 9 9 9 9 10 11 12 12 13 13 13 13
17 17 18 19 20 21 20 19 17 16 15 16 16 16 15 14 14 13 12 12 12 12 11 11 11 10 10 10 10 10 10 10 10 10 10 11 12 12 13 13 14 15
18 18 18 19 20 23 23 21 19 17 16 17 18 18 17 16 15 15 14 13 12 12 12 12 12 11 11 11 11 11 11 11 11 11 11 11 11 12 13 13 14 14
21 19 19 19 20 23 24 23 21 18 17 17 18 18 19 18 17 16 16 15 14 13 13 13 13 12 11 11 11 11 12 12 12 12 12 12 12 12 13 13 14 14
24 22 21 20 21 22 24 25 23 20 19 18 18 18 19 18 17 17 17 17 16 15 14 14 13 13 12 12 12 12 12 13 13 13 13 13 13 13 13 13 14 14
27 25 24 23 22 23 23 25 25 23 21 20 19 18 18 18 18 18 18 18 17 16 15 15 14 14 13 12 12 12 12 13 14 14 14 15 14 14 14 14 14 14
28 28 27 25 23 23 23 24 25 25 24 22 20 19 18 19 19 19 19 19 18 18 17 16 15 15 14 13 13 13 13 13 14 14 15 15 15 15 15 15 15 14
31 32 30 28 26 25 23 23 24 26 26 24 21 20 19 19 20 20 20 19 19 18 18 18 17 17 17 16 15 14 14 14 14 14 14 15 15 15 15 16 15 15
31 34 33 33 31 28 26 24 24 25 26 25 23 22 20 20 20 20 20 20 20 19 19 19 19 20 20 19 18 17 16 15 14 14 14 14 15 15 16 17 17 16
28 32 35 36 34 31 28 27 25 25 26 26 25 24 23 21 21 21 21 21 21 20 20 20 20 21 21 21 21 20 18 17 16 16 16 16 16 16 17 18 18 18
22 27 33 36 34 31 31 29 27 27 26 25 26 26 25 24 23 22 22 21 21 21 21 21 21 22 22 22 22 22 21 19 18 18 18 18 19 19 20 20 20 20
17 19 25 31 31 30 31 29 28 28 27 25 25 25 25 25 24 23 23 22 22 21 21 21 22 22 22 22 22 22 22 21 20 20 19 20 21 21 21 22 22 22
15 14 17 23 27 28 29 28 27 28 27 26 25 24 24 24 25 25 25 24 24 23 23 23 23 23 22 22 22 22 22 22 21 20 20 21 22 22 23 23 23 23
16 15 14 17 21 24 25 25 25 26 26 25 24 23 23 24 26 27 27 26 26 26 26 25 24 23 23 23 23 23 23 22 22 22 21 22 23 24 24 24 24 24
17 17 16 15 16 18 19 21 22 23 24 24 24 23 24 25 26 27 28 28 28 28 28 27 25 24 24 24 24 24 23 23 23 22 22 23 23 24 25 26 26 26
16 16 16 14 13 14 15 17 19 20 22 22 23 24 25 25 26 27 28 28 28 29 29 29 28 27 26 25 25 25 25 24 23 22 22 22 23 24 25 26 27 27
18 17 16 15 15 15 15 15 16 17 19 19 19 20 22 24 26 27 29 30 30 30 31 30 30 29 29 28 26 26 26 25 24 23 22 22 22 23 23 25 26 28
20 19 18 17 18 18 18 17 17 17 17 17 16 16 18 20 23 26 29 31 32 32 31 31 31 32 32 31 29 28 27 27 26 25 24 24 23 23 23 23 25 27
23 23 22 21 21 21 21 21 20 20 20 19 17 17 18 18 19 21 24 27 28 29 28 29 30 32 34 33 32 30 29 29 29 28 26 26 25 24 24 24 25 26
27 26 25 25 25 24 23 23 23 23 23 22 20 19 20 20 19 20 21 21 22 23 23 23 26 28 29 31 31 31 31 31 30 29 28 27 27 26 27 26 26 26
Wind_Direction
213 212 213 213 215 217 215 213 213 215 218 218 211 205 202 200 200 199 197 194 192 195 194 193 194 195 193 194 193 193 197 198 193 187 186 186 185 186 187 188 186 185
214 214 214 213 213 217 218 216 217 218 221 224 220 215 212 210 208 206 206 205 200 199 199 201 203 203 204 203 203 202 201 202 201 197 196 196 193 193 193 193 193 194
214 215 216 215 212 212 215 217 220 220 222 226 226 225 223 221 218 215 213 213 210 205 203 204 208 210 211 210 208 207 208 208 208 206 206 205 203 203 202 198 198 199
215 217 218 218 214 210 208 211 214 217 219 222 225 228 229 228 226 224 220 218 217 215 210 208 211 215 216 215 212 210 212 214 214 214 213 212 211 212 209 206 204 205
219 221 221 220 218 213 210 208 209 211 214 217 219 224 228 230 230 229 226 222 222 222 220 216 217 219 220 222 219 215 215 218 219 220 220 219 219 218 218 217 214 212
223 225 225 224 221 218 216 214 210 210 211 213 215 218 223 226 227 229 228 227 227 227 226 224 224 224 226 231 231 226 222 223 224 225 225 226 226 225 224 226 226 224
222 225 226 227 225 221 218 216 213 212 211 212 214 215 219 222 223 224 226 228 231 231 231 232 232 231 232 236 240 239 235 233 232 232 232 232 233 232 231 231 232 232
220 221 224 226 226 224 221 217 214 213 211 212 214 214 216 219 221 222 224 226 229 232 234 237 239 241 240 240 243 245 245 244 240 239 240 240 240 239 238 237 237 237
225 221 222 224 226 227 226 222 219 217 215 215 215 215 214 217 219 222 223 223 225 228 231 234 237 242 246 247 248 248 249 249 247 244 245 245 246 246 246 246 246 244
232 227 223 223 224 226 227 226 223 221 220 221 220 218 217 216 218 221 223 223 222 223 226 229 232 236 242 249 253 254 254 253 251 249 249 248 248 248 249 251 252 252
236 233 228 225 224 224 225 225 224 222 221 223 224 223 221 218 217 221 225 226 224 223 223 225 227 229 234 241 249 254 257 258 256 253 252 253 252 252 253 254 256 257
240 239 235 230 227 225 224 223 222 221 221 223 224 224 223 220 218 219 224 227 229 228 226 226 227 228 230 235 241 248 254 259 260 258 257 257 257 258 259 260 261 262
244 243 241 238 235 232 229 226 222 220 221 223 225 225 223 221 219 219 220 223 227 230 230 229 230 230 230 232 236 243 249 254 258 261 261 260 260 261 263 264 266 266
242 240 238 237 237 235 232 230 226 222 222 223 226 227 226 224 222 221 221 220 222 225 228 230 232 232 232 231 232 236 243 249 254 258 261 262 262 262 263 264 266 267
239 237 233 230 230 231 230 230 229 226 224 223 225 228 228 227 226 226 224 223 221 222 223 226 230 233 234 234 233 233 236 241 247 252 256 258 259 259 260 260 261 262
241 241 235 227 225 226 226 226 228 228 227 225 224 227 229 230 230 230 229 227 225 224 224 224 227 231 235 237 238 237 236 236 240 244 248 251 253 253 253 254 254 255
247 245 236 227 225 227 226 224 225 227 228 228 227 227 229 232 234 235 234 233 232 231 230 229 230 232 235 239 242 244 243 240 240 241 244 247 249 250 251 252 252 252
249 247 237 228 228 232 230 227 226 226 229 232 232 232 233 234 237 239 241 241 241 240 238 237 238 238 239 240 243 246 247 247 246 246 247 250 252 253 254 255 255 256
241 243 237 231 232 233 231 230 231 231 231 234 235 236 238 239 240 241 243 246 248 248 246 244 244 245 245 245 245 246 247 249 249 249 251 254 256 258 259 259 259 259
237 235 232 230 231 231 230 232 235 235 234 234 235 237 240 242 243 242 242 245 248 251 252 251 251 252 252 252 250 248 247 247 248 249 251 253 256 258 259 260 260 260
234 230 225 222 223 225 228 232 234 234 233 234 235 237 240 243 244 244 244 245 248 252 254 255 256 256 257 257 256 255 251 247 246 247 249 252 256 258 261 262 263 263
227 221 219 223 226 227 229 232 234 234 235 238 240 241 242 242 243 244 246 247 249 252 254 255 256 256 256 257 259 260 258 254 250 247 247 250 254 258 261 264 266 267
233 230 231 235 238 238 236 234 233 234 236 240 243 244 244 243 243 244 246 248 249 250 251 253 255 256 256 255 256 258 261 261 258 255 252 250 251 253 257 262 265 267
236 239 242 240 238 238 238 236 235 235 235 239 243 245 247 247 246 245 246 248 249 249 250 252 254 256 256 255 253 255 259 262 262 260 257 254 254 254 256 259 262 265
238 244 247 244 239 237 238 239 239 238 240 243 245 248 250 251 249 247 247 249 250 249 251 253 255 255 255 254 255 256 259 261 261 261 260 259 258 257 257 257 258 261
242 246 247 243 240 239 241 244 244 242 243 244 246 249 251 253 255 255 252 250 250 249 248 250 254 254 252 253 255 259 261 262 261 261 262 263 261 258 256 257 257 258
Height
5950 5951 5952 5953 5954 5954 5955 5956 5957 5958 5959 5959 5960 5960 5961 5961 5962 5962 5963 5963 5964 5964 5964 5965 5965 5965 5965 5966 5966 5966 5967 5968 5968 5969 5970 5970 5970 5971 5972 5972 5973 5973
5949 5950 5952 5953 5953 5954 5955 5956 5957 5958 5959 5959 5960 5961 5961 5962 5962 5963 5963 5964 5964 5964 5964 5965 5965 5966 5966 5966 5966 5967 5967 5968 5968 5969 5969 5970 5970 5971 5971 5972 5972 5973
5948 5949 5951 5952 5953 5954 5955 5956 5956 5957 5958 5959 5960 5961 5961 5962 5962 5963 5963 5964 5964 5964 5964 5965 5965 5965 5966 5966 5966 5967 5967 5968 5968 5968 5969 5970 5970 5971 5971 5971 5972 5972
5948 5949 5950 5951 5952 5953 5954 5954 5955 5956 5956 5958 5959 5960 5961 5962 5962 5963 5963 5964 5964 5964 5964 5965 5965 5965 5966 5966 5966 5967 5967 5968 5968 5968 5969 5969 5970 5970 5971 5971 5971 5972
5947 5948 5949 5950 5951 5952 5952 5952 5953 5954 5955 5956 5957 5959 5960 5961 5962 5963 5963 5964 5964 5964 5964 5965 5965 5965 5965 5966 5966 5966 5967 5967 5968 5968 5969 5969 5969 5970 5971 5971 5971 5971
5945 5947 5948 5950 5950 5951 5951 5951 5952 5953 5953 5954 5956 5957 5958 5960 5961 5962 5962 5963 5963 5964 5964 5964 5964 5965 5965 5965 5966 5966 5966 5967 5967 5968 5968 5969 5969 5969 5970 5970 5971 5971
5943 5945 5947 5948 5949 5950 5950 5950 5951 5952 5952 5953 5954 5955 5957 5958 5959 5960 5961 5962 5963 5963 5963 5963 5964 5964 5964 5965 5965 5966 5966 5966 5967 5967 5967 5968 5968 5969 5969 5970 5970 5971
5941 5943 5944 5946 5947 5948 5948 5948 5949 5950 5951 5952 5952 5953 5955 5956 5958 5959 5960 5961 5962 5962 5962 5963 5963 5963 5963 5964 5964 5965 5965 5966 5966 5966 5967 5967 5968 5968 5968 5969 5969 5970
5940 5940 5942 5943 5945 5946 5947 5947 5948 5948 5949 5950 5951 5952 5953 5954 5956 5957 5958 5959 5960 5961 5961 5962 5962 5963 5963 5963 5963 5964 5965 5965 5965 5966 5966 5966 5967 5967 5967 5968 5969 5969
5938 5938 5939 5940 5942 5943 5944 5945 5946 5947 5948 5949 5949 5950 5951 5952 5954 5956 5957 5958 5959 5959 5960 5961 5961 5962 5962 5963 5963 5963 5964 5964 5964 5965 5965 5965 5965 5966 5966 5967 5968 5969
5936 5936 5937 5938 5939 5940 5941 5943 5944 5945 5946 5947 5948 5949 5950 5951 5953 5954 5956 5957 5957 5958 5959 5959 5960 5960 5961 5961 5962 5962 5963 5963 5963 5964 5964 5964 5964 5965 5965 5966 5967 5968
5934 5935 5936 5936 5937 5938 5939 5940 5942 5943 5944 5945 5946 5947 5948 5950 5951 5952 5954 5955 5956 5957 5958 5958 5959 5959 5959 5960 5960 5961 5961 5962 5962 5963 5963 5963 5964 5964 5964 5965 5965 5966
5933 5934 5935 5936 5937 5938 5938 5938 5939 5940 5942 5943 5944 5945 5947 5948 5949 5950 5951 5952 5954 5955 5956 5957 5957 5958 5958 5958 5959 5959 5960 5960 5961 5961 5962 5962 5963 5963 5964 5964 5965 5965
5929 5931 5932 5934 5936 5937 5937 5938 5938 5939 5939 5941 5942 5944 5945 5946 5947 5948 5948 5950 5951 5952 5954 5955 5956 5956 5956 5957 5957 5957 5958 5958 5959 5960 5960 5961 5962 5962 5962 5963 5963 5964
5926 5926 5927 5928 5930 5933 5935 5936 5937 5937 5938 5939 5940 5942 5943 5944 5945 5946 5947 5947 5948 5949 5951 5952 5953 5954 5954 5955 5955 5955 5956 5956 5957 5958 5958 5959 5960 5960 5961 5961 5961 5961
5922 5922 5923 5924 5925 5928 5931 5932 5934 5935 5936 5936 5938 5939 5940 5942 5943 5944 5945 5945 5946 5947 5948 5949 5950 5951 5952 5953 5953 5953 5954 5954 5955 5956 5956 5957 5957 5958 5958 5958 5958 5959
5917 5918 5919 5921 5922 5925 5927 5928 5930 5932 5934 5934 5935 5936 5938 5939 5940 5941 5942 5943 5944 5945 5946 5947 5947 5948 5949 5950 5951 5952 5952 5952 5953 5953 5954 5955 5955 5955 5955 5956 5956 5956
5915 5915 5916 5918 5920 5922 5924 5925 5927 5929 5931 5932 5933 5934 5936 5938 5939 5940 5941 5942 5943 5944 5944 5945 5945 5945 5947 5948 5949 5950 5951 5951 5951 5952 5953 5953 5953 5953 5954 5954 5954 5954
5914 5914 5915 5916 5918 5920 5922 5924 5925 5927 5929 5931 5932 5933 5935 5936 5937 5938 5939 5940 5941 5941 5942 5942 5943 5944 5945 5946 5946 5947 5948 5949 5950 5951 5951 5951 5952 5952 5952 5952 5953 5952
5913 5913 5914 5915 5916 5918 5920 5922 5924 5925 5927 5929 5930 5931 5933 5934 5934 5935 5935 5936 5938 5939 5939 5940 5942 5943 5943 5944 5944 5945 5946 5947 5947 5948 5949 5949 5950 5950 5951 5951 5951 5951
5911 5912 5913 5914 5915 5916 5918 5919 5921 5923 5925 5927 5928 5929 5930 5930 5931 5932 5932 5933 5935 5936 5937 5939 5940 5941 5941 5942 5942 5943 5943 5944 5944 5944 5945 5946 5947 5948 5949 5949 5950 5950
5909 5910 5911 5912 5913 5915 5916 5917 5918 5920 5923 5924 5925 5926 5926 5928 5929 5929 5930 5931 5932 5933 5934 5936 5937 5937 5938 5939 5940 5941 5941 5941 5941 5941 5942 5943 5944 5945 5946 5947 5948 5948
5906 5908 5909 5911 5912 5913 5915 5916 5917 5919 5920 5921 5922 5923 5924 5925 5926 5926 5927 5928 5929 5929 5930 5931 5932 5933 5934 5935 5936 5937 5938 5939 5939 5939 5939 5939 5939 5941 5942 5943 5944 5945
5905 5906 5907 5909 5910 5912 5913 5914 5915 5917 5918 5918 5919 5920 5921 5922 5922 5923 5923 5924 5925 5926 5926 5927 5928 5929 5930 5931 5932 5933 5935 5936 5936 5937 5936 5936 5936 5937 5938 5939 5940 5941
5903 5904 5905 5906 5908 5909 5911 5912 5913 5914 5915 5916 5916 5917 5917 5918 5919 5920 5920 5921 5922 5922 5923 5923 5924 5925 5926 5927 5928 5929 5930 5931 5932 5933 5933 5934 5934 5935 5935 5936 5936 5937
5900 5901 5902 5903 5904 5906 5907 5908 5910 5911 5912 5913 5913 5914 5914 5915 5916 5917 5917 5918 5919 5919 5920 5920 5920 5922 5923 5923 5924 5925 5926 5926 5927 5929 5930 5930 5931 5931 5932 5932 5933 5933